カタログに戻る

SL-16 DEB

運用中LEO
NORAD 22616·DEBRIS·🇷🇺 Russia

打ち上げ Mar 26, 1993 から Baikonur Cosmodrome

Loading…

次のパス (今後24時間)

TLE

最新Source: Space-Track

元期: Sep 13, 2026, 23:25 UTC

1 22616U 93016AA  26256.97599163  .00000033  00000-0  70839-4 0  9993
2 22616  70.9938  83.9489 0185712  51.2428  99.0835 13.74044829677288

AllMySatでSL-16 DEBをリアルタイム追跡

Download on the App Store